Weather History for Erzincan, Turkey

Change the Weather History Date:

Wednesday, February 13, 2013

  Actual Average Record
Temperature  
Mean Temperature 35 °F -  
Max Temperature 48 °F 43 °F - ()
Min Temperature 22 °F 26 °F - ()
Degree Days  
Heating Degree Days 30    
Moisture  
Dew Point 25 °F    
Average Humidity 65    
Maximum Humidity 93    
Minimum Humidity 28    
Precipitation  
Precipitation 0.00 in 0.04 in - ()
Sea Level Pressure  
Sea Level Pressure 30.21 in    
Wind  
Wind Speed 2 mph ()    
Max Wind Speed 8 mph    
Max Gust Speed -    
Visibility 7.5 miles    
Events      
T = Trace of Precipitation, MM = Missing Value Source: Averaged Metar Reports

Daily Weather History Graph

Daily Weather History Graph

Search for Another Location

Airport:

Trip Planner

Search our weather history database for the weather conditions in past years. The results will help you decide how hot, cold, wet, or windy it might be!

Date:

Astronomy

Feb. 13, 2013 Rise Set
Actual Time 6:16 AM EET 4:55 PM EET
Civil Twilight 5:49 AM EET 5:23 PM EET
Nautical Twilight 5:17 AM EET 5:55 PM EET
Astronomical Twilight 4:46 AM EET 6:26 PM EET
Moon 7:35 AM EET (2/13) 8:35 PM EET (2/13)
Length of Visible Light 11h 34m
Length of Day
10h 38m
Waxing Crescent, 11% of the Moon is Illuminated
Feb 13
Waxing Crescent
Feb 17
First Quarter
Feb 25
Full
Mar 4
Last Quarter
Mar 11
New

Hourly Weather History & Observations

Time (EET) Temp. Windchill Dew Point Humidity Pressure Visibility Wind Dir Wind Speed Gust Speed Precip Events Conditions
12:50 AM 33.8 °F 27.0 °F 23.0 °F 65% 30.15 in - North 8.1 mph - N/A   Clear
1:50 AM 30.2 °F - 24.8 °F 80% 30.15 in - Variable 1.2 mph - N/A   Clear
2:00 AM 31 °F - 24 °F 64%  in 6 mi WSW 1.2 mph - -  
2:50 AM 28.4 °F - 23.0 °F 80% 30.15 in - Calm Calm - N/A   Clear
3:50 AM 26.6 °F 21.2 °F 24.8 °F 93% 30.18 in - NNE 4.6 mph - N/A   Clear
4:50 AM 24.8 °F - 23.0 °F 93% 30.18 in - Calm Calm - N/A   Clear
5:50 AM 26.6 °F - 24.8 °F 93% 30.21 in - NNE 2.3 mph - N/A   Clear
6:50 AM 24.8 °F - 23.0 °F 93% 30.21 in - Calm Calm - N/A   Clear
7:50 AM 32.0 °F - 26.6 °F 80% 30.24 in - Calm Calm - N/A   Clear
8:00 AM 31 °F - 25 °F 71%  in 6 mi Calm Calm - -  
8:50 AM 35.6 °F 32.8 °F 24.8 °F 65% 30.24 in - SSW 3.5 mph - N/A   Clear
9:50 AM 39.2 °F - 26.6 °F 61% 30.24 in - Variable 2.3 mph - N/A   Clear
10:50 AM 41.0 °F - 24.8 °F 53% 30.24 in - Variable 1.2 mph - N/A   Clear
11:50 AM 44.6 °F - 24.8 °F 46% 30.21 in - Variable 2.3 mph - N/A   Clear
12:50 PM 46.4 °F 45.2 °F 24.8 °F 43% 30.21 in - Variable 3.5 mph - N/A   Clear
1:50 PM 46.4 °F - 24.8 °F 43% 30.21 in - Variable 2.3 mph - N/A   Clear
2:00 PM 47 °F - 25 °F 28%  in 12 mi South 2.3 mph - -  
2:50 PM 48.2 °F - 24.8 °F 40% 30.18 in - SSW 3.5 mph - N/A   Clear
3:50 PM 48.2 °F - 24.8 °F 40% 30.18 in - Variable 1.2 mph - N/A   Clear
4:50 PM 44.6 °F 43.1 °F 24.8 °F 46% 30.21 in - WSW 3.5 mph - N/A   Clear
5:50 PM 37.4 °F 32.8 °F 24.8 °F 60% 30.21 in - ESE 5.8 mph - N/A   Clear
6:50 PM 35.6 °F - 24.8 °F 65% 30.24 in - Variable 1.2 mph - N/A   Clear
7:50 PM 33.8 °F - 24.8 °F 70% 30.24 in - ESE 2.3 mph - N/A   Clear
8:00 PM 35 °F - 24 °F 54%  in 6 mi ESE 2.3 mph - -  
8:50 PM 33.8 °F 30.8 °F 24.8 °F 70% 30.24 in - SSE 3.5 mph - N/A   Clear
9:50 PM 33.8 °F - 24.8 °F 70% 30.24 in - Variable 1.2 mph - N/A   Clear
10:50 PM 32.0 °F - 24.8 °F 75% 30.27 in - Variable 1.2 mph - N/A   Clear
11:50 PM 32.0 °F 28.7 °F 24.8 °F 75% 30.27 in - East 3.5 mph - N/A   Clear